| time (UTC) | temp F | wind direction | speed knots | gust knots | rain 1hr in | rain 24hr in | rain mn in | humidity % | barometer mb |
| 20260510044858 | 75 | 214 | 0.0 | 0.0 | 0.00 | 0.05 | 0.05 | 89 | 1014.0 |
| 20260510044354 | 75 | 214 | 0.0 | 0.0 | 0.00 | 0.05 | 0.05 | 89 | 1013.8 |
| 20260510043851 | 75 | 214 | 0.0 | 0.0 | 0.00 | 0.05 | 0.05 | 88 | 1013.8 |
| 20260510043347 | 75 | 214 | 0.0 | 0.0 | 0.00 | 0.05 | 0.05 | 88 | 1014.0 |
| 20260510042845 | 75 | 214 | 0.0 | 0.0 | 0.00 | 0.05 | 0.05 | 88 | 1013.9 |
| 20260510042341 | 76 | 214 | 0.0 | 0.0 | 0.00 | 0.05 | 0.05 | 87 | 1013.9 |
| 20260510041837 | 76 | 214 | 0.0 | 0.0 | 0.00 | 0.05 | 0.05 | 87 | 1014.0 |
| 20260510041334 | 76 | 214 | 0.0 | 0.0 | 0.00 | 0.05 | 0.05 | 86 | 1013.7 |
| 20260510040832 | 76 | 214 | 0.0 | 0.0 | 0.00 | 0.05 | 0.05 | 86 | 1014.0 |
| 20260510040328 | 77 | 214 | 0.0 | 0.0 | 0.00 | 0.05 | 0.05 | 86 | 1013.7 |
| 20260510035824 | 77 | 214 | 0.0 | 0.0 | 0.00 | 0.05 | 0.05 | 85 | 1013.8 |
| 20260510035320 | 77 | 214 | 0.0 | 0.0 | 0.00 | 0.05 | 0.05 | 84 | 1013.7 |
| 20260510034816 | 78 | 214 | 0.0 | 0.0 | 0.00 | 0.05 | 0.05 | 84 | 1013.9 |
| 20260510034314 | 78 | 213 | 0.0 | 0.0 | 0.00 | 0.05 | 0.05 | 83 | 1013.6 |
| 20260510033810 | 78 | 211 | 1.7 | 2.6 | 0.00 | 0.05 | 0.05 | 83 | 1013.7 |
| 20260510033307 | 78 | 213 | 0.9 | 0.9 | 0.00 | 0.05 | 0.05 | 83 | 1013.6 |
| 20260510032803 | 78 | 212 | 1.7 | 2.6 | 0.00 | 0.05 | 0.05 | 83 | 1013.6 |
| 20260510032300 | 79 | 213 | 0.9 | 0.9 | 0.00 | 0.05 | 0.05 | 83 | 1013.5 |
| 20260510031755 | 79 | 213 | 1.7 | 1.7 | 0.00 | 0.05 | 0.05 | 82 | 1013.4 |
| 20260510031251 | 79 | 215 | 0.9 | 0.9 | 0.00 | 0.05 | 0.05 | 82 | 1013.4 |
| 20260510030745 | 79 | 208 | 1.7 | 1.7 | 0.00 | 0.05 | 0.05 | 82 | 1013.4 |
| 20260510030242 | 79 | 221 | 1.7 | 1.7 | 0.00 | 0.05 | 0.05 | 81 | 1013.1 |
| 20260510025739 | 80 | 186 | 1.7 | 1.7 | 0.00 | 0.05 | 0.05 | 81 | 1013.1 |
| 20260510025238 | 80 | 188 | 1.7 | 1.7 | 0.00 | 0.05 | 0.05 | 80 | 1013.1 |
| 20260510024734 | 80 | 190 | 2.6 | 4.3 | 0.00 | 0.05 | 0.05 | 80 | 1013.2 |
| 20260510024230 | 80 | 139 | 2.6 | 2.6 | 0.00 | 0.05 | 0.05 | 79 | 1013.1 |
| 20260510023725 | 80 | 187 | 0.9 | 0.9 | 0.00 | 0.05 | 0.05 | 79 | 1013.0 |
| 20260510023224 | 80 | 212 | 1.7 | 1.7 | 0.00 | 0.05 | 0.05 | 78 | 1012.7 |
| 20260510022720 | 80 | 197 | 2.6 | 4.3 | 0.00 | 0.05 | 0.05 | 77 | 1012.9 |
| 20260510022219 | 80 | 214 | 2.6 | 2.6 | 0.00 | 0.05 | 0.05 | 77 | 1012.7 |
| 20260510021715 | 80 | 184 | 0.9 | 1.7 | 0.00 | 0.05 | 0.05 | 77 | 1012.6 |
| 20260510021213 | 81 | 214 | 0.9 | 0.9 | 0.00 | 0.05 | 0.05 | 77 | 1012.3 |
| 20260510020707 | 81 | 215 | 1.7 | 1.7 | 0.00 | 0.05 | 0.05 | 76 | 1012.4 |
| 20260510020202 | 81 | 180 | 0.9 | 1.7 | 0.00 | 0.05 | 0.05 | 76 | 1012.3 |
| 20260510015658 | 81 | 211 | 1.7 | 1.7 | 0.00 | 0.05 | 0.05 | 75 | 1012.1 |
| 20260510015155 | 81 | 195 | 1.7 | 1.7 | 0.00 | 0.05 | 0.05 | 75 | 1012.1 |
| 20260510014650 | 81 | 194 | 0.9 | 0.9 | 0.00 | 0.05 | 0.05 | 74 | 1012.2 |
| 20260510014148 | 82 | 179 | 0.9 | 0.9 | 0.00 | 0.05 | 0.05 | 73 | 1012.2 |
| 20260510013643 | 82 | 193 | 2.6 | 4.3 | 0.00 | 0.05 | 0.05 | 73 | 1012.2 |
| 20260510013139 | 82 | 191 | 1.7 | 2.6 | 0.00 | 0.05 | 0.05 | 71 | 1012.1 |
| 20260510012638 | 82 | 214 | 1.7 | 1.7 | 0.00 | 0.05 | 0.05 | 71 | 1012.0 |
| 20260510012135 | 82 | 214 | 1.7 | 2.6 | 0.00 | 0.05 | 0.05 | 71 | 1011.9 |
| 20260510011635 | 83 | 207 | 2.6 | 2.6 | 0.00 | 0.05 | 0.05 | 70 | 1012.1 |
| 20260510011130 | 83 | 183 | 0.0 | 0.9 | 0.00 | 0.05 | 0.05 | 69 | 1012.0 |
| 20260510010627 | 83 | 193 | 2.6 | 4.3 | 0.00 | 0.05 | 0.05 | 68 | 1011.9 |
| 20260510010124 | 83 | 193 | 0.9 | 0.9 | 0.00 | 0.05 | 0.05 | 67 | 1011.5 |
| 20260510005619 | 83 | 193 | 1.7 | 2.6 | 0.00 | 0.05 | 0.05 | 67 | 1011.8 |
| 20260510005117 | 84 | 188 | 0.9 | 0.9 | 0.00 | 0.05 | 0.05 | 66 | 1011.9 |
| 20260510004615 | 84 | 198 | 0.9 | 1.7 | 0.00 | 0.05 | 0.05 | 64 | 1011.6 |
| 20260510004113 | 85 | 196 | 2.6 | 4.3 | 0.00 | 0.05 | 0.05 | 63 | 1011.6 |
| 20260510003610 | 85 | 197 | 4.3 | 5.2 | 0.00 | 0.05 | 0.05 | 62 | 1011.7 |
| 20260510003106 | 85 | 206 | 1.7 | 2.6 | 0.00 | 0.05 | 0.05 | 61 | 1011.7 |
| 20260510002600 | 85 | 154 | 2.6 | 2.6 | 0.00 | 0.05 | 0.05 | 59 | 1011.6 |
| 20260510002057 | 85 | 201 | 2.6 | 4.3 | 0.00 | 0.05 | 0.05 | 58 | 1011.3 |
| 20260510001554 | 86 | 196 | 1.7 | 2.6 | 0.00 | 0.05 | 0.05 | 58 | 1011.3 |
| 20260510001053 | 86 | 172 | 0.9 | 1.7 | 0.00 | 0.05 | 0.05 | 58 | 1011.3 |
| 20260510000548 | 86 | 119 | 3.5 | 5.2 | 0.00 | 0.05 | 0.05 | 55 | 1011.4 |
| 20260510000046 | 86 | 212 | 1.7 | 1.7 | 0.00 | 0.05 | 0.05 | 57 | 1011.3 |
| 20260509235541 | 86 | 191 | 3.5 | 5.2 | 0.00 | 0.05 | 0.05 | 55 | 1011.4 |
| 20260509235038 | 86 | 189 | 2.6 | 2.6 | 0.00 | 0.05 | 0.05 | 54 | 1011.0 |
| 20260509234534 | 87 | 193 | 3.5 | 4.3 | 0.00 | 0.05 | 0.05 | 53 | 1011.3 |
| 20260509234033 | 87 | 152 | 4.3 | 5.2 | 0.00 | 0.05 | 0.05 | 50 | 1011.2 |
| 20260509233530 | 87 | 201 | 4.3 | 6.1 | 0.00 | 0.05 | 0.05 | 50 | 1011.1 |
| 20260509233027 | 87 | 213 | 4.3 | 5.2 | 0.00 | 0.05 | 0.05 | 50 | 1011.2 |
| 20260509232524 | 87 | 124 | 2.6 | 5.2 | 0.00 | 0.05 | 0.05 | 50 | 1011.1 |
| 20260509232020 | 87 | 189 | 2.6 | 4.3 | 0.00 | 0.05 | 0.05 | 50 | 1011.0 |
| 20260509231516 | 88 | 197 | 2.6 | 2.6 | 0.00 | 0.05 | 0.05 | 50 | 1011.2 |
| 20260509231015 | 88 | 173 | 2.6 | 2.6 | 0.00 | 0.05 | 0.05 | 51 | 1010.8 |
| 20260509230511 | 88 | 186 | 2.6 | 2.6 | 0.00 | 0.05 | 0.05 | 51 | 1011.0 |
| 20260509230008 | 89 | 161 | 3.5 | 4.3 | 0.00 | 0.05 | 0.05 | 50 | 1011.2 |
| 20260509225503 | 89 | 186 | 1.7 | 1.7 | 0.00 | 0.05 | 0.05 | 50 | 1010.9 |
| 20260509224959 | 89 | 168 | 3.5 | 4.3 | 0.00 | 0.05 | 0.05 | 50 | 1011.0 |
| 20260509224455 | 89 | 181 | 2.6 | 2.6 | 0.00 | 0.05 | 0.05 | 51 | 1011.1 |
| 20260509223952 | 89 | 185 | 2.6 | 2.6 | 0.00 | 0.05 | 0.05 | 51 | 1011.1 |
| 20260509223449 | 89 | 158 | 2.6 | 2.6 | 0.00 | 0.05 | 0.05 | 50 | 1011.0 |
| 20260509222946 | 89 | 167 | 2.6 | 4.3 | 0.00 | 0.05 | 0.05 | 52 | 1011.0 |
| 20260509222441 | 89 | 183 | 5.2 | 6.1 | 0.00 | 0.05 | 0.05 | 50 | 1011.1 |
| 20260509221937 | 89 | 235 | 1.7 | 1.7 | 0.00 | 0.05 | 0.05 | 53 | 1011.2 |
| 20260509221434 | 89 | 201 | 1.7 | 1.7 | 0.00 | 0.05 | 0.05 | 52 | 1011.1 |
| 20260509220930 | 89 | 195 | 2.6 | 4.3 | 0.00 | 0.05 | 0.05 | 53 | 1011.1 |
| 20260509220426 | 88 | 195 | 2.6 | 2.6 | 0.00 | 0.05 | 0.05 | 52 | 1010.9 |
| 20260509215922 | 88 | 180 | 2.6 | 2.6 | 0.00 | 0.05 | 0.05 | 53 | 1011.1 |
| 20260509215418 | 87 | 187 | 3.5 | 4.3 | 0.00 | 0.05 | 0.05 | 55 | 1011.2 |
| 20260509214916 | 88 | 146 | 2.6 | 4.3 | 0.00 | 0.05 | 0.05 | 55 | 1011.3 |
| 20260509214413 | 88 | 153 | 3.5 | 6.1 | 0.00 | 0.05 | 0.05 | 56 | 1011.3 |
| 20260509213910 | 88 | 192 | 4.3 | 6.1 | 0.00 | 0.05 | 0.05 | 55 | 1011.2 |
| 20260509213405 | 89 | 187 | 4.3 | 7.0 | 0.00 | 0.05 | 0.05 | 55 | 1011.2 |
| 20260509212903 | 89 | 220 | 2.6 | 4.3 | 0.00 | 0.05 | 0.05 | 56 | 1011.2 |
| 20260509212400 | 90 | 186 | 2.6 | 4.3 | 0.00 | 0.05 | 0.05 | 55 | 1011.4 |
| 20260509211856 | 90 | 103 | 3.5 | 4.3 | 0.00 | 0.05 | 0.05 | 57 | 1011.5 |
| 20260509211352 | 91 | 182 | 2.6 | 4.3 | 0.00 | 0.05 | 0.05 | 53 | 1011.5 |
| 20260509210849 | 94 | 222 | 0.9 | 0.9 | 0.00 | 0.05 | 0.05 | 51 | 1011.3 |
| 20260509210346 | 95 | 203 | 0.0 | 0.0 | 0.00 | 0.05 | 0.05 | 46 | 1011.7 |
| 20260509205846 | 95 | 197 | 0.0 | 0.0 | 0.00 | 0.05 | 0.05 | 47 | 1011.4 |
| 20260509205340 | 95 | 200 | 0.9 | 0.9 | 0.00 | 0.05 | 0.05 | 45 | 1011.7 |
| 20260509204838 | 95 | 198 | 0.9 | 0.9 | 0.00 | 0.05 | 0.05 | 45 | 1011.7 |
| 20260509204334 | 94 | 199 | 0.0 | 0.0 | 0.00 | 0.05 | 0.05 | 50 | 1011.7 |
| 20260509203830 | 93 | 198 | 0.0 | 0.9 | 0.00 | 0.05 | 0.05 | 52 | 1011.8 |
| 20260509203327 | 93 | 265 | 0.9 | 0.9 | 0.00 | 0.05 | 0.05 | 48 | 1011.8 |
| 20260509202823 | 94 | 255 | 0.0 | 0.9 | 0.00 | 0.05 | 0.05 | 53 | 1012.0 |
| 20260509202320 | 94 | 314 | 0.0 | 0.0 | 0.00 | 0.05 | 0.05 | 54 | 1012.3 |
| 20260509201819 | 94 | 285 | 0.9 | 1.7 | 0.00 | 0.05 | 0.05 | 50 | 1012.2 |
| 20260509201316 | 93 | 223 | 0.0 | 0.9 | 0.00 | 0.05 | 0.05 | 55 | 1012.3 |
| 20260509200812 | 93 | 201 | 2.6 | 4.3 | 0.00 | 0.05 | 0.05 | 51 | 1012.6 |
| 20260509200308 | 93 | 222 | 0.0 | 0.0 | 0.00 | 0.05 | 0.05 | 58 | 1012.4 |
| 20260509195804 | 94 | 222 | 0.0 | 0.9 | 0.00 | 0.05 | 0.05 | 53 | 1012.6 |
| 20260509195259 | 94 | 222 | 0.0 | 0.0 | 0.00 | 0.05 | 0.05 | 56 | 1012.3 |
| 20260509194759 | 93 | 248 | 0.0 | 0.0 | 0.00 | 0.05 | 0.05 | 57 | 1012.3 |
| 20260509194255 | 92 | 248 | 0.0 | 0.0 | 0.00 | 0.05 | 0.05 | 56 | 1012.4 |
| 20260509193752 | 91 | 245 | 0.9 | 0.9 | 0.00 | 0.05 | 0.05 | 57 | 1012.4 |
| 20260509193247 | 92 | 242 | 0.0 | 0.0 | 0.00 | 0.05 | 0.05 | 56 | 1012.7 |
| 20260509192744 | 92 | 348 | 0.9 | 1.7 | 0.00 | 0.05 | 0.05 | 56 | 1012.8 |
| 20260509192244 | 91 | 264 | 0.0 | 0.9 | 0.00 | 0.05 | 0.05 | 59 | 1012.8 |
| 20260509191739 | 91 | 245 | 0.0 | 0.9 | 0.00 | 0.05 | 0.05 | 59 | 1012.7 |
| 20260509191236 | 91 | 264 | 0.9 | 1.7 | 0.00 | 0.05 | 0.05 | 59 | 1012.8 |
| 20260509190732 | 91 | 264 | 1.7 | 1.7 | 0.00 | 0.05 | 0.05 | 59 | 1013.0 |
| 20260509190229 | 89 | 262 | 0.9 | 0.9 | 0.00 | 0.05 | 0.05 | 62 | 1012.9 |
| 20260509185727 | 90 | 263 | 0.9 | 1.7 | 0.00 | 0.05 | 0.05 | 62 | 1013.0 |
| 20260509185223 | 90 | 196 | 0.0 | 0.0 | 0.00 | 0.05 | 0.05 | 61 | 1013.1 |
| 20260509184721 | 90 | 237 | 0.0 | 0.0 | 0.00 | 0.05 | 0.05 | 64 | 1013.3 |
| 20260509184218 | 90 | 237 | 0.9 | 0.9 | 0.00 | 0.05 | 0.05 | 62 | 1013.6 |
| 20260509183714 | 90 | 275 | 0.9 | 1.7 | 0.00 | 0.05 | 0.05 | 62 | 1013.4 |
| 20260509183209 | 91 | 193 | 0.9 | 1.7 | 0.00 | 0.05 | 0.05 | 63 | 1013.6 |
| 20260509182705 | 91 | 301 | 2.6 | 2.6 | 0.00 | 0.05 | 0.05 | 61 | 1013.4 |
| 20260509182203 | 90 | 226 | 0.0 | 0.0 | 0.00 | 0.05 | 0.05 | 64 | 1013.4 |
| 20260509181700 | 90 | 192 | 0.9 | 0.9 | 0.00 | 0.05 | 0.05 | 61 | 1013.7 |
| 20260509181158 | 90 | 243 | 0.9 | 0.9 | 0.00 | 0.05 | 0.05 | 63 | 1013.7 |
| 20260509180654 | 89 | 262 | 0.0 | 0.9 | 0.00 | 0.05 | 0.05 | 64 | 1013.8 |
| 20260509180150 | 89 | 336 | 1.7 | 2.6 | 0.00 | 0.05 | 0.05 | 64 | 1013.9 |
| 20260509175646 | 89 | 257 | 0.0 | 0.0 | 0.00 | 0.05 | 0.05 | 65 | 1013.8 |
| 20260509175143 | 87 | 261 | 0.0 | 0.9 | 0.00 | 0.05 | 0.05 | 69 | 1014.0 |
| 20260509174639 | 87 | 197 | 0.0 | 0.0 | 0.00 | 0.05 | 0.05 | 65 | 1014.1 |
| 20260509174134 | 89 | 195 | 2.6 | 2.6 | 0.00 | 0.05 | 0.05 | 65 | 1014.1 |
| 20260509173630 | 89 | 223 | 1.7 | 1.7 | 0.00 | 0.05 | 0.05 | 66 | 1014.5 |
| 20260509173126 | 88 | 224 | 0.0 | 0.9 | 0.00 | 0.05 | 0.05 | 67 | 1014.6 |
| 20260509172623 | 87 | 224 | 1.7 | 1.7 | 0.00 | 0.05 | 0.05 | 67 | 1014.7 |
| 20260509172119 | 87 | 248 | 0.9 | 0.9 | 0.00 | 0.05 | 0.05 | 65 | 1014.3 |
| 20260509171615 | 87 | 315 | 0.0 | 0.0 | 0.00 | 0.05 | 0.05 | 68 | 1014.4 |
| 20260509171111 | 86 | 315 | 0.9 | 1.7 | 0.00 | 0.05 | 0.05 | 69 | 1014.4 |
| 20260509170608 | 88 | 316 | 0.0 | 0.9 | 0.00 | 0.05 | 0.05 | 67 | 1014.3 |
| 20260509170104 | 86 | 311 | 0.0 | 0.0 | 0.00 | 0.05 | 0.05 | 72 | 1014.6 |
| 20260509165602 | 86 | 311 | 0.9 | 0.9 | 0.00 | 0.05 | 0.05 | 69 | 1014.5 |
| 20260509165058 | 86 | 312 | 0.0 | 0.0 | 0.00 | 0.05 | 0.05 | 74 | 1014.3 |
| 20260509164554 | 85 | 312 | 0.0 | 0.0 | 0.00 | 0.05 | 0.05 | 75 | 1014.6 |
| 20260509164050 | 85 | 315 | 1.7 | 2.6 | 0.00 | 0.05 | 0.05 | 75 | 1014.5 |
| 20260509163548 | 84 | 314 | 0.0 | 0.9 | 0.00 | 0.05 | 0.05 | 76 | 1014.7 |
| 20260509163044 | 83 | 315 | 0.0 | 0.0 | 0.00 | 0.05 | 0.05 | 80 | 1014.6 |
| 20260509162541 | 83 | 316 | 0.0 | 0.0 | 0.00 | 0.05 | 0.05 | 81 | 1014.7 |
| 20260509162036 | 83 | 237 | 0.0 | 0.9 | 0.00 | 0.05 | 0.05 | 80 | 1014.7 |
| 20260509161533 | 83 | 259 | 0.9 | 1.7 | 0.00 | 0.05 | 0.05 | 80 | 1014.5 |
| 20260509161028 | 83 | 142 | 0.0 | 0.9 | 0.00 | 0.05 | 0.05 | 82 | 1014.6 |
| 20260509160524 | 82 | 269 | 0.9 | 0.9 | 0.00 | 0.05 | 0.05 | 82 | 1014.5 |
| 20260509160020 | 81 | 199 | 0.9 | 1.7 | 0.00 | 0.05 | 0.05 | 86 | 1014.6 |
| 20260509155516 | 80 | 162 | 3.5 | 5.2 | 0.00 | 0.05 | 0.05 | 86 | 1014.6 |
| 20260509155012 | 79 | 167 | 0.0 | 0.0 | 0.00 | 0.05 | 0.05 | 89 | 1014.6 |
| 20260509154508 | 77 | 160 | 2.6 | 4.3 | 0.00 | 0.05 | 0.05 | 91 | 1014.9 |
| 20260509154006 | 77 | 221 | 2.6 | 2.6 | 0.00 | 0.05 | 0.05 | 91 | 1014.8 |
| 20260509153503 | 77 | 170 | 3.5 | 5.2 | 0.00 | 0.05 | 0.05 | 91 | 1014.9 |
| 20260509153000 | 76 | 175 | 2.6 | 4.3 | 0.00 | 0.05 | 0.05 | 92 | 1014.7 |
| 20260509152455 | 76 | 171 | 4.3 | 5.2 | 0.00 | 0.05 | 0.05 | 93 | 1014.6 |
| 20260509151953 | 76 | 216 | 2.6 | 4.3 | 0.00 | 0.05 | 0.05 | 93 | 1014.9 |
| 20260509151449 | 76 | 177 | 1.7 | 4.3 | 0.00 | 0.05 | 0.05 | 94 | 1014.6 |
| 20260509150948 | 76 | 181 | 0.9 | 1.7 | 0.00 | 0.05 | 0.05 | 94 | 1014.5 |
| 20260509150444 | 76 | 162 | 2.6 | 4.3 | 0.00 | 0.05 | 0.05 | 94 | 1014.4 |
| 20260509145942 | 76 | 239 | 0.9 | 1.7 | 0.00 | 0.05 | 0.05 | 94 | 1014.4 |
| 20260509145437 | 75 | 211 | 0.9 | 1.7 | 0.00 | 0.05 | 0.05 | 95 | 1014.5 |
| 20260509144933 | 75 | 191 | 0.9 | 0.9 | 0.00 | 0.05 | 0.05 | 96 | 1014.4 |
| 20260509144430 | 75 | 156 | 1.7 | 2.6 | 0.00 | 0.05 | 0.05 | 96 | 1014.4 |
| 20260509143927 | 74 | 226 | 0.9 | 0.9 | 0.00 | 0.05 | 0.05 | 97 | 1014.5 |
| 20260509143424 | 74 | 185 | 1.7 | 1.7 | 0.00 | 0.05 | 0.05 | 97 | 1014.5 |
| 20260509142920 | 75 | 210 | 2.6 | 4.3 | 0.00 | 0.05 | 0.05 | 96 | 1014.0 |
| 20260509142417 | 75 | 207 | 4.3 | 5.2 | 0.00 | 0.05 | 0.05 | 95 | 1014.1 |
| 20260509141912 | 76 | 212 | 4.3 | 6.1 | 0.00 | 0.05 | 0.05 | 96 | 1013.9 |
| 20260509141410 | 76 | 164 | 3.5 | 4.3 | 0.00 | 0.05 | 0.05 | 96 | 1013.6 |
| 20260509140906 | 76 | 203 | 1.7 | 1.7 | 0.00 | 0.05 | 0.05 | 98 | 1013.9 |
| 20260509140403 | 75 | 193 | 1.7 | 1.7 | 0.00 | 0.05 | 0.05 | 99 | 1013.6 |
| 20260509135901 | 75 | 222 | 0.0 | 0.0 | 0.00 | 0.05 | 0.05 | 99 | 1013.5 |
| 20260509135358 | 74 | 191 | 2.6 | 4.3 | 0.00 | 0.05 | 0.05 | 99 | 1013.4 |
| 20260509134855 | 74 | 148 | 2.6 | 2.6 | 0.00 | 0.05 | 0.05 | 99 | 1013.6 |
| 20260509134353 | 74 | 145 | 2.6 | 4.3 | 0.00 | 0.05 | 0.05 | 99 | 1013.5 |
| 20260509133849 | 73 | 196 | 2.6 | 2.6 | 0.00 | 0.05 | 0.05 | 99 | 1013.6 |
| 20260509133346 | 73 | 199 | 2.6 | 2.6 | 0.00 | 0.05 | 0.05 | 99 | 1013.7 |
| 20260509132845 | 73 | 159 | 2.6 | 4.3 | 0.00 | 0.05 | 0.05 | 99 | 1013.7 |
| 20260509132343 | 72 | 203 | 0.0 | 0.9 | 0.00 | 0.05 | 0.05 | 99 | 1013.8 |
| 20260509131839 | 72 | 195 | 1.7 | 1.7 | 0.00 | 0.05 | 0.05 | 99 | 1014.2 |
| 20260509131336 | 72 | 195 | 1.7 | 1.7 | 0.00 | 0.05 | 0.05 | 99 | 1014.2 |
| 20260509130833 | 72 | 216 | 0.9 | 0.9 | 0.00 | 0.05 | 0.05 | 99 | 1014.5 |
| 20260509130328 | 72 | 217 | 0.0 | 0.0 | 0.00 | 0.05 | 0.05 | 99 | 1014.4 |
| 20260509125825 | 72 | 217 | 0.0 | 0.0 | 0.00 | 0.05 | 0.05 | 99 | 1014.6 |
| 20260509125322 | 72 | 217 | 0.0 | 0.0 | 0.00 | 0.05 | 0.05 | 99 | 1014.4 |
| 20260509124818 | 72 | 217 | 0.0 | 0.0 | 0.00 | 0.05 | 0.05 | 99 | 1014.3 |
| 20260509124315 | 72 | 217 | 0.0 | 0.0 | 0.00 | 0.05 | 0.05 | 99 | 1014.3 |
| 20260509123813 | 72 | 217 | 0.0 | 0.0 | 0.00 | 0.05 | 0.05 | 99 | 1014.3 |
| 20260509123310 | 72 | 217 | 0.0 | 0.0 | 0.00 | 0.05 | 0.05 | 99 | 1014.0 |
| 20260509122806 | 72 | 217 | 0.0 | 0.0 | 0.00 | 0.05 | 0.05 | 99 | 1014.0 |
| 20260509122306 | 72 | 217 | 0.0 | 0.0 | 0.00 | 0.05 | 0.05 | 99 | 1013.8 |
| 20260509121800 | 72 | 217 | 0.0 | 0.0 | 0.00 | 0.05 | 0.05 | 99 | 1014.1 |
| 20260509121257 | 72 | 217 | 0.0 | 0.0 | 0.00 | 0.05 | 0.05 | 99 | 1013.6 |
| 20260509120755 | 72 | 217 | 0.0 | 0.0 | 0.00 | 0.05 | 0.05 | 99 | 1013.9 |
| 20260509120252 | 72 | 217 | 0.0 | 0.0 | 0.00 | 0.05 | 0.05 | 99 | 1013.9 |
| 20260509115751 | 72 | 217 | 0.0 | 0.0 | 0.00 | 0.05 | 0.05 | 99 | 1014.2 |
| 20260509115247 | 72 | 217 | 0.0 | 0.0 | 0.00 | 0.05 | 0.05 | 99 | 1014.3 |
| 20260509114745 | 72 | 217 | 0.0 | 0.0 | 0.00 | 0.05 | 0.05 | 99 | 1014.3 |
| 20260509114244 | 72 | 216 | 0.0 | 0.0 | 0.00 | 0.05 | 0.05 | 99 | 1014.3 |
| 20260509113742 | 72 | 216 | 0.0 | 0.0 | 0.00 | 0.05 | 0.05 | 99 | 1014.4 |
| 20260509113239 | 72 | 216 | 0.9 | 0.9 | 0.00 | 0.05 | 0.05 | 99 | 1014.3 |
| 20260509112736 | 72 | 216 | 0.9 | 0.9 | 0.00 | 0.05 | 0.05 | 99 | 1014.9 |
| 20260509112233 | 72 | 216 | 0.0 | 0.0 | 0.00 | 0.05 | 0.05 | 99 | 1014.8 |
| 20260509111730 | 72 | 217 | 0.0 | 0.0 | 0.00 | 0.05 | 0.05 | 99 | 1014.9 |
| 20260509111226 | 72 | 217 | 0.0 | 0.0 | 0.00 | 0.05 | 0.05 | 99 | 1015.2 |
| 20260509110724 | 72 | 217 | 0.0 | 0.0 | 0.00 | 0.05 | 0.05 | 99 | 1015.0 |
| 20260509110220 | 72 | 217 | 0.0 | 0.0 | 0.00 | 0.05 | 0.05 | 99 | 1015.0 |
| 20260509105719 | 72 | 216 | 0.0 | 0.0 | 0.00 | 0.05 | 0.05 | 99 | 1015.2 |
| 20260509105216 | 72 | 217 | 0.0 | 0.0 | 0.24 | 0.05 | 0.05 | 99 | 1015.4 |
| 20260509104713 | 72 | 216 | 0.0 | 0.0 | 0.24 | 0.05 | 0.05 | 99 | 1015.3 |
| 20260509104210 | 72 | 216 | 0.0 | 0.0 | 0.00 | 0.01 | 0.01 | 99 | 1015.1 |
| 20260509103708 | 72 | 216 | 0.0 | 0.0 | 0.00 | 0.01 | 0.01 | 99 | 1015.1 |
| 20260509103205 | 72 | 216 | 0.0 | 0.0 | 0.00 | 0.01 | 0.01 | 99 | 1014.9 |
| 20260509102703 | 72 | 216 | 0.0 | 0.0 | 0.00 | 0.01 | 0.01 | 99 | 1015.1 |
| 20260509102200 | 72 | 216 | 0.0 | 0.0 | 0.00 | 0.01 | 0.01 | 99 | 1015.2 |
| 20260509101656 | 72 | 216 | 0.0 | 0.0 | 0.00 | 0.01 | 0.01 | 99 | 1015.0 |
| 20260509101153 | 72 | 215 | 0.0 | 0.0 | 0.00 | 0.01 | 0.01 | 99 | 1014.8 |
| 20260509100650 | 72 | 216 | 0.0 | 0.0 | 0.00 | 0.01 | 0.01 | 99 | 1014.6 |
| 20260509100147 | 72 | 216 | 0.0 | 0.0 | 0.00 | 0.01 | 0.01 | 99 | 1014.3 |
| 20260509095644 | 72 | 216 | 0.0 | 0.0 | 0.00 | 0.01 | 0.01 | 99 | 1014.1 |
| 20260509095141 | 72 | 216 | 0.0 | 0.0 | 0.00 | 0.01 | 0.01 | 99 | 1013.6 |
| 20260509094637 | 72 | 215 | 0.9 | 0.9 | 0.00 | 0.01 | 0.01 | 99 | 1013.8 |
| 20260509094135 | 72 | 216 | 0.0 | 0.0 | 0.00 | 0.01 | 0.01 | 99 | 1013.8 |
| 20260509093633 | 72 | 216 | 0.0 | 0.0 | 0.00 | 0.01 | 0.01 | 99 | 1013.6 |
| 20260509093130 | 72 | 216 | 0.0 | 0.0 | 0.00 | 0.01 | 0.01 | 99 | 1013.6 |
| 20260509092628 | 72 | 216 | 0.0 | 0.0 | 0.00 | 0.01 | 0.01 | 99 | 1013.6 |
| 20260509092126 | 72 | 215 | 0.0 | 0.0 | 0.00 | 0.01 | 0.01 | 99 | 1013.8 |
| 20260509091624 | 72 | 216 | 0.0 | 0.0 | 0.00 | 0.01 | 0.01 | 99 | 1013.7 |
| 20260509091120 | 72 | 216 | 0.0 | 0.0 | 0.00 | 0.01 | 0.01 | 99 | 1013.7 |
| 20260509090617 | 72 | 216 | 0.0 | 0.0 | 0.00 | 0.01 | 0.01 | 99 | 1013.5 |
| 20260509090115 | 72 | 216 | 0.0 | 0.0 | 0.07 | 0.01 | 0.01 | 99 | 1013.7 |
| 20260509085612 | 72 | 216 | 0.0 | 0.0 | 0.07 | 0.01 | 0.01 | 99 | 1013.5 |
| 20260509085108 | 72 | 216 | 0.0 | 0.0 | 0.00 | 0.00 | 0.00 | 99 | 1013.7 |
| 20260509084605 | 72 | 216 | 0.0 | 0.0 | 0.00 | 0.00 | 0.00 | 99 | 1013.7 |
| 20260509084102 | 72 | 216 | 0.0 | 0.0 | 0.00 | 0.00 | 0.00 | 99 | 1013.7 |
| 20260509083559 | 72 | 216 | 0.0 | 0.0 | 0.00 | 0.00 | 0.00 | 99 | 1013.7 |
| 20260509083056 | 73 | 216 | 0.0 | 0.0 | 0.00 | 0.00 | 0.00 | 99 | 1013.8 |
| 20260509082553 | 73 | 214 | 0.0 | 0.0 | 0.00 | 0.00 | 0.00 | 99 | 1014.0 |
| 20260509082050 | 73 | 214 | 0.0 | 0.0 | 0.00 | 0.00 | 0.00 | 99 | 1013.9 |
| 20260509081547 | 73 | 214 | 0.0 | 0.0 | 0.00 | 0.00 | 0.00 | 99 | 1014.1 |
| 20260509081044 | 73 | 214 | 0.0 | 0.9 | 0.00 | 0.00 | 0.00 | 99 | 1014.0 |
| 20260509080542 | 73 | 214 | 0.0 | 0.0 | 0.00 | 0.00 | 0.00 | 98 | 1014.2 |
| 20260509080040 | 73 | 213 | 0.0 | 0.0 | 0.00 | 0.00 | 0.00 | 98 | 1014.1 |
| 20260509075537 | 73 | 213 | 0.0 | 0.0 | 0.00 | 0.00 | 0.00 | 98 | 1013.9 |
| 20260509075035 | 73 | 213 | 0.0 | 0.0 | 0.00 | 0.00 | 0.00 | 98 | 1013.7 |
| 20260509074532 | 73 | 213 | 0.0 | 0.0 | 0.00 | 0.00 | 0.00 | 98 | 1013.9 |
| 20260509074028 | 73 | 213 | 0.0 | 0.0 | 0.00 | 0.00 | 0.00 | 97 | 1013.9 |
| 20260509073525 | 73 | 213 | 0.0 | 0.0 | 0.00 | 0.00 | 0.00 | 97 | 1013.7 |
| 20260509073021 | 73 | 213 | 0.0 | 0.0 | 0.00 | 0.00 | 0.00 | 97 | 1013.9 |
| 20260509072518 | 73 | 213 | 0.0 | 0.0 | 0.00 | 0.00 | 0.00 | 97 | 1014.1 |
| 20260509072015 | 73 | 213 | 0.0 | 0.0 | 0.00 | 0.00 | 0.00 | 97 | 1014.2 |
| 20260509071511 | 73 | 213 | 0.0 | 0.0 | 0.00 | 0.00 | 0.00 | 97 | 1014.2 |
| 20260509071009 | 73 | 213 | 0.0 | 0.0 | 0.00 | 0.00 | 0.00 | 97 | 1014.1 |
| 20260509070506 | 73 | 213 | 0.0 | 0.0 | 0.00 | 0.00 | 0.00 | 97 | 1013.9 |
| 20260509070002 | 73 | 213 | 0.0 | 0.0 | 0.00 | 0.00 | 0.00 | 97 | 1014.4 |
| 20260509065457 | 73 | 212 | 0.0 | 0.9 | 0.00 | 0.00 | 0.00 | 97 | 1014.2 |
| 20260509064954 | 73 | 212 | 0.0 | 0.0 | 0.00 | 0.00 | 0.00 | 96 | 1014.1 |
| 20260509064452 | 73 | 212 | 0.0 | 0.0 | 0.00 | 0.00 | 0.00 | 96 | 1014.0 |
| 20260509063950 | 73 | 212 | 0.0 | 0.0 | 0.00 | 0.00 | 0.00 | 96 | 1014.0 |
| 20260509063445 | 73 | 212 | 0.0 | 0.0 | 0.00 | 0.00 | 0.00 | 96 | 1013.9 |
| 20260509062942 | 73 | 212 | 0.0 | 0.0 | 0.00 | 0.00 | 0.00 | 96 | 1014.0 |
| 20260509062439 | 73 | 210 | 0.9 | 0.9 | 0.00 | 0.00 | 0.00 | 96 | 1014.0 |
| 20260509061937 | 73 | 203 | 0.9 | 0.9 | 0.00 | 0.00 | 0.00 | 96 | 1014.0 |
| 20260509061434 | 73 | 223 | 0.9 | 0.9 | 0.00 | 0.00 | 0.00 | 96 | 1013.9 |
| 20260509060931 | 73 | 211 | 0.0 | 0.0 | 0.00 | 0.00 | 0.00 | 97 | 1013.8 |
| 20260509060429 | 73 | 190 | 0.9 | 0.9 | 0.00 | 0.00 | 0.00 | 97 | 1013.7 |
| 20260509055923 | 73 | 210 | 1.7 | 2.6 | 0.00 | 0.00 | 0.00 | 97 | 1013.8 |
| 20260509055419 | 73 | 210 | 0.0 | 0.0 | 0.00 | 0.00 | 0.00 | 97 | 1013.4 |
| 20260509054916 | 73 | 197 | 0.9 | 1.7 | 0.00 | 0.00 | 0.00 | 97 | 1013.3 |
| 20260509054413 | 73 | 210 | 1.7 | 1.7 | 0.00 | 0.00 | 0.00 | 97 | 1013.5 |
| 20260509053911 | 73 | 207 | 1.7 | 1.7 | 0.00 | 0.00 | 0.00 | 97 | 1013.6 |
| 20260509053409 | 72 | 222 | 0.0 | 0.9 | 0.00 | 0.00 | 0.00 | 97 | 1013.7 |
| 20260509052906 | 72 | 207 | 0.0 | 0.9 | 0.00 | 0.00 | 0.00 | 97 | 1013.6 |
| 20260509052403 | 72 | 169 | 2.6 | 2.6 | 0.00 | 0.00 | 0.00 | 97 | 1013.1 |
| 20260509051901 | 72 | 209 | 3.5 | 5.2 | 0.00 | 0.00 | 0.00 | 97 | 1013.1 |
| 20260509051359 | 72 | 206 | 3.5 | 6.1 | 0.00 | 0.00 | 0.00 | 97 | 1012.8 |
| 20260509050855 | 72 | 220 | 0.9 | 1.7 | 0.00 | 0.00 | 0.00 | 97 | 1012.7 |
| 20260509050352 | 72 | 204 | 2.6 | 2.6 | 0.00 | 0.00 | 0.00 | 96 | 1012.9 |
| 20260509045849 | 72 | 211 | 0.9 | 1.7 | 0.00 | 0.00 | 0.00 | 96 | 1012.8 |
| 20260509045346 | 72 | 197 | 1.7 | 1.7 | 0.00 | 0.00 | 0.00 | 96 | 1013.0 |